Skip Page Navigation
NASA JPL Caltech
NASA Logo - Jet Propulsion Laboratory + View the NASA Portal
+ Center for Near-Earth Object Studies
JPL Home Earth Solar System Stars & Galaxies Technology
JPL Solar System Dynamics
BODIES ORBITS EPHEMERIDES TOOLS PHYSICAL DATA DISCOVERY FAQ SITE MAP
IMPORTANT: The SSD Announcement email list is now available. Major changes are coming in the near future, including possible hostname and/or URL changes. To be notified of such changes, subscribe to this email list.

Please visit this page for more details.


JPL Small-Body Database Browser
Search: [ help ]  
351692 (2006 BL82)
Classification: Main-belt Asteroid          SPK-ID: 2351692
Ephemeris | Orbit Diagram | Orbital Elements | Mission Design | Physical Parameters | Discovery Circumstances ]

[ show orbit diagram ]
Orbital Elements at Epoch 2458600.5 (2019-Apr-27.0) TDB
Reference: JPL 6 (heliocentric ecliptic J2000)
 Element Value Uncertainty (1-sigma)   Units 
e .1088299488672776 9.6941e-08  
a 2.340168361148113 2.5689e-08 au
q 2.085487958063543 2.1491e-07 au
i 2.639471052553949 8.6036e-06 deg
node 304.8644916770714 0.00018103 deg
peri 196.0658917330397 0.00018624 deg
M 253.2077442179274 4.2223e-05 deg
tp 2458988.387997637548
(2020-May-18.88799764)
0.00015599 TDB
period 1307.582447124962
3.58
2.1531e-05
5.895e-08
d
yr
n .2753172473304055 4.5334e-09 deg/d
Q 2.594848764232683 2.8485e-08 au
  Orbit Determination Parameters
   # obs. used (total)      106  
   data-arc span      4116 days (11.27 yr)  
   first obs. used      2006-01-23  
   last obs. used      2017-05-01  
   planetary ephem.      DE431  
   SB-pert. ephem.      SB431-N16  
   condition code      0  
   norm. resid. RMS      .62492  
   source      ORB  
   producer      Otto Matic  
   solution date      2018-Oct-04 11:17:17  

Additional Information
 Earth MOID = 1.09903 au 
 Jupiter MOID = 2.41996 au 
 T_jup = 3.555 
[ show covariance matrix ]

Ephemeris | Orbit Diagram | Orbital Elements | Mission Design | Physical Parameters | Discovery Circumstances ]

Physical Parameter Table
Parameter Symbol Value Units Sigma Reference Notes
absolute magnitude H 18.0   n/a MPO455546  

351692 (2006 BL82)          Discovered 2006-Jan-23 by Mt. Lemmon Survey at Mount Lemmon
Reference: 20130127/Numbers.arcLast Updated: 2013-01-31

Alternate Designations
 2006 BL82 = 2010 BZ125 
Ephemeris | Orbit Diagram | Orbital Elements | Mission Design | Physical Parameters | Discovery Circumstances ]
ABOUT SSD CREDITS/AWARDS PRIVACY/COPYRIGHT GLOSSARY LINKS
FirstGov
(server date/time)  
NASA Home Page
Site Manager:   Ryan S. Park
Webmaster  Alan B. Chamberlin